BAW380 EGLL-LATI

Flight info

Callsign BAW380
Flight time N/A
Altitude 35000
Route DET1J DET L6 DVR UL9 KONAN UL607 KOK DCT SISGA DCT RITAX DCT KRH DCT UTABA DCT BEMKI DCT ELMEM DCT DIRAB/N0441F370 DCT PEVAL DCT SIPAL DCT TIKSA DCT BALHA DCT MOKUN DCT TIBRI DCT BIGLO DCT LASTI DCT LEBGA L607 PETAK
Aircraft A320/M-SDE3FGIJ1KRWXY/SB1

Departure

Time N/A
Airport London Heathrow Airport (EGLL)

Arrival

Time 2026-05-01 09:19
Airport Tirana International Airport Mother Teresa (LATI)
Time Latitude Longitude Altitude Speed Heading
2026-05-01 07:23 50.17750 5.49297 35299 ft 439 kts 116°
2026-05-01 07:24 50.13690 5.62123 35297 ft 440 kts 116°
2026-05-01 07:24 50.10968 5.70664 35308 ft 440 kts 116°
2026-05-01 07:25 50.08241 5.79213 35305 ft 441 kts 116°
2026-05-01 07:25 50.05351 5.87627 35317 ft 440 kts 120°
2026-05-01 07:26 50.02258 5.95779 35323 ft 440 kts 120°
2026-05-01 07:26 49.99118 6.03954 35325 ft 440 kts 120°
2026-05-01 07:27 49.96032 6.12155 35319 ft 440 kts 120°
2026-05-01 07:27 49.92964 6.20382 35316 ft 440 kts 119°
2026-05-01 07:28 49.89891 6.28575 35327 ft 440 kts 120°
2026-05-01 07:28 49.86790 6.36773 35321 ft 440 kts 120°
2026-05-01 07:29 49.83679 6.44961 35313 ft 441 kts 119°
2026-05-01 07:29 49.80564 6.53165 35304 ft 442 kts 120°
2026-05-01 07:30 49.77443 6.61380 35296 ft 443 kts 119°
2026-05-01 07:30 49.74312 6.69567 35304 ft 442 kts 120°
2026-05-01 07:31 49.71189 6.77699 35310 ft 442 kts 120°
2026-05-01 07:32 49.63300 6.98131 35312 ft 444 kts 119°
2026-05-01 07:33 49.58544 7.10397 35336 ft 444 kts 120°
2026-05-01 07:33 49.53790 7.22590 35344 ft 445 kts 119°
2026-05-01 07:34 49.48990 7.34841 35346 ft 445 kts 119°
2026-05-01 07:35 49.45790 7.42983 35346 ft 445 kts 119°
2026-05-01 07:35 49.42577 7.51118 35346 ft 445 kts 120°
2026-05-01 07:36 49.39387 7.59186 35345 ft 445 kts 119°
2026-05-01 07:36 49.36166 7.67312 35341 ft 446 kts 119°
2026-05-01 07:37 49.31305 7.79502 35349 ft 447 kts 119°
2026-05-01 07:37 49.28053 7.87626 35349 ft 447 kts 120°
2026-05-01 07:38 49.24792 7.95741 35357 ft 447 kts 120°
2026-05-01 07:39 49.19919 8.07833 35361 ft 447 kts 120°
2026-05-01 07:39 49.15003 8.19965 35352 ft 447 kts 120°
2026-05-01 07:40 49.11728 8.28034 35344 ft 447 kts 120°
2026-05-01 07:40 49.08446 8.36092 35343 ft 447 kts 120°
2026-05-01 07:41 49.05153 8.44151 35339 ft 447 kts 120°
2026-05-01 07:42 49.00168 8.56099 35332 ft 449 kts 125°
2026-05-01 07:42 48.95710 8.62778 35341 ft 452 kts 140°
2026-05-01 07:43 48.90780 8.68707 35335 ft 452 kts 140°
2026-05-01 07:43 48.83384 8.77617 35346 ft 452 kts 139°
2026-05-01 07:44 48.73536 8.89420 35354 ft 453 kts 139°
2026-05-01 07:45 48.68582 8.95332 35358 ft 453 kts 139°
2026-05-01 07:45 48.63629 9.01243 35363 ft 453 kts 139°
2026-05-01 07:46 48.58681 9.07145 35365 ft 453 kts 139°
2026-05-01 07:47 48.51231 9.15964 35342 ft 453 kts 139°
2026-05-01 07:47 48.46263 9.21822 35337 ft 454 kts 139°
2026-05-01 07:48 48.38824 9.30584 35337 ft 454 kts 139°
2026-05-01 07:48 48.33841 9.36427 35348 ft 454 kts 139°
2026-05-01 07:49 48.26348 9.45160 35357 ft 455 kts 139°
2026-05-01 07:50 48.21397 9.51066 35380 ft 454 kts 137°
2026-05-01 07:50 48.14114 9.60173 35379 ft 454 kts 136°
2026-05-01 07:51 48.09270 9.66165 35379 ft 455 kts 137°
2026-05-01 07:52 48.01905 9.75132 35373 ft 455 kts 137°
2026-05-01 07:52 47.96999 9.81094 35390 ft 455 kts 137°
2026-05-01 07:53 47.89662 9.90008 35364 ft 455 kts 136°
2026-05-01 07:53 47.84754 9.95968 35360 ft 455 kts 136°
2026-05-01 07:55 47.72443 10.10820 35346 ft 455 kts 137°
2026-05-01 07:56 47.60139 10.25545 35326 ft 456 kts 136°
2026-05-01 07:57 47.52467 10.33939 35322 ft 460 kts 142°
2026-05-01 07:58 47.41767 10.44322 35317 ft 460 kts 142°
2026-05-01 07:59 47.31051 10.54671 35330 ft 461 kts 142°
2026-05-01 08:00 47.15384 10.70905 35346 ft 459 kts 139°
2026-05-01 08:01 47.04987 10.81783 35391 ft 461 kts 139°
2026-05-01 08:02 46.97113 10.89950 35372 ft 462 kts 139°
2026-05-01 08:03 46.90120 10.97202 35366 ft 463 kts 139°
2026-05-01 08:03 46.81422 11.06352 35402 ft 459 kts 132°
2026-05-01 08:04 46.73316 11.18424 35386 ft 454 kts 127°
2026-05-01 08:05 46.66721 11.28355 35388 ft 455 kts 127°
2026-05-01 08:06 46.60100 11.38281 35390 ft 456 kts 127°
2026-05-01 08:07 46.51243 11.51501 35400 ft 457 kts 127°
2026-05-01 08:08 46.44621 11.61365 35396 ft 457 kts 127°
2026-05-01 08:09 46.35706 11.74582 35413 ft 458 kts 127°
2026-05-01 08:09 46.31277 11.81114 35406 ft 457 kts 127°
2026-05-01 08:10 46.22355 11.94238 35404 ft 457 kts 127°
2026-05-01 08:11 46.13417 12.07316 35403 ft 456 kts 127°
2026-05-01 08:12 46.06725 12.17055 35405 ft 456 kts 127°
2026-05-01 08:13 46.00022 12.26797 35407 ft 457 kts 127°
2026-05-01 08:13 45.93299 12.36513 35433 ft 457 kts 127°
2026-05-01 08:14 45.88840 12.42929 35434 ft 456 kts 127°
2026-05-01 08:14 45.84356 12.49381 35424 ft 456 kts 127°
2026-05-01 08:15 45.77626 12.59040 35413 ft 456 kts 127°
2026-05-01 08:16 45.73129 12.65463 35443 ft 457 kts 127°
2026-05-01 08:16 45.68647 12.71854 35434 ft 457 kts 127°
2026-05-01 08:17 45.64142 12.78264 35423 ft 456 kts 127°
2026-05-01 08:17 45.59638 12.84655 35418 ft 457 kts 127°
2026-05-01 08:18 45.55121 12.91042 35408 ft 457 kts 127°
2026-05-01 08:19 45.46103 13.03765 35386 ft 455 kts 127°
2026-05-01 08:19 45.41597 13.10102 35384 ft 455 kts 127°
2026-05-01 08:20 45.37116 13.16396 35387 ft 456 kts 127°
2026-05-01 08:20 45.32589 13.22727 35386 ft 457 kts 127°
2026-05-01 08:21 45.28584 13.29552 35410 ft 447 kts 118°
2026-05-01 08:21 45.24835 13.36595 35404 ft 447 kts 118°
2026-05-01 08:22 45.21070 13.43635 35403 ft 447 kts 118°
2026-05-01 08:22 45.17305 13.50669 35391 ft 448 kts 118°
2026-05-01 08:23 45.13560 13.57654 35414 ft 449 kts 119°
2026-05-01 08:23 45.09764 13.64703 35384 ft 450 kts 120°
2026-05-01 08:24 45.05955 13.71750 35382 ft 451 kts 120°
2026-05-01 08:24 45.02145 13.78796 35369 ft 451 kts 120°
2026-05-01 08:25 44.98330 13.85846 35368 ft 451 kts 120°
2026-05-01 08:25 44.94507 13.92890 35395 ft 452 kts 120°
2026-05-01 08:26 44.90701 13.99878 35383 ft 451 kts 120°
2026-05-01 08:26 44.86861 14.06897 35372 ft 452 kts 121°
2026-05-01 08:27 44.83011 14.13922 35368 ft 453 kts 121°
2026-05-01 08:27 44.79157 14.20939 35389 ft 453 kts 121°
2026-05-01 08:28 44.75292 14.27963 35377 ft 454 kts 121°
2026-05-01 08:28 44.71448 14.34938 35372 ft 454 kts 121°
2026-05-01 08:29 44.67570 14.41951 35369 ft 454 kts 122°
2026-05-01 08:29 44.63679 14.48967 35385 ft 455 kts 123°
2026-05-01 08:30 44.59782 14.55970 35365 ft 456 kts 123°
2026-05-01 08:30 44.55874 14.62996 35357 ft 457 kts 123°
2026-05-01 08:31 44.51955 14.70017 35358 ft 457 kts 123°
2026-05-01 08:31 44.48046 14.76993 35353 ft 458 kts 123°
2026-05-01 08:32 44.44103 14.84014 35349 ft 458 kts 123°
2026-05-01 08:32 44.40164 14.91033 35343 ft 458 kts 123°
2026-05-01 08:33 44.36244 14.97991 35345 ft 458 kts 124°
2026-05-01 08:33 44.32290 15.04983 35346 ft 459 kts 124°
2026-05-01 08:34 44.28325 15.11973 35358 ft 459 kts 124°
2026-05-01 08:34 44.24355 15.18954 35351 ft 459 kts 124°
2026-05-01 08:35 44.20380 15.25939 35349 ft 459 kts 124°
2026-05-01 08:35 44.16409 15.32910 35346 ft 459 kts 124°
2026-05-01 08:36 44.12425 15.39878 35361 ft 460 kts 124°
2026-05-01 08:36 44.08457 15.46804 35340 ft 461 kts 124°
2026-05-01 08:37 44.04444 15.53772 35329 ft 462 kts 124°
2026-05-01 08:37 44.00420 15.60748 35326 ft 463 kts 124°
2026-05-01 08:38 43.96392 15.67724 35342 ft 463 kts 124°
2026-05-01 08:38 43.92359 15.74697 35329 ft 463 kts 125°
2026-05-01 08:39 43.88315 15.81665 35309 ft 464 kts 125°
2026-05-01 08:39 43.84261 15.88631 35292 ft 465 kts 125°
2026-05-01 08:40 43.78148 15.99099 35282 ft 467 kts 125°
2026-05-01 08:40 43.74089 16.06040 35299 ft 467 kts 126°
2026-05-01 08:41 43.70000 16.13019 35295 ft 467 kts 126°
2026-05-01 08:41 43.65897 16.19985 35293 ft 467 kts 126°
2026-05-01 08:42 43.61789 16.26946 35291 ft 467 kts 126°
2026-05-01 08:42 43.57682 16.33899 35292 ft 467 kts 126°
2026-05-01 08:43 43.53566 16.40847 35296 ft 467 kts 126°
2026-05-01 08:43 43.49443 16.47792 35292 ft 468 kts 126°
2026-05-01 08:44 43.45316 16.54715 35284 ft 468 kts 126°
2026-05-01 08:44 43.41217 16.61590 35282 ft 468 kts 126°
2026-05-01 08:45 43.37090 16.68502 35271 ft 468 kts 127°
2026-05-01 08:45 43.32942 16.75420 35288 ft 469 kts 127°
2026-05-01 08:46 43.28784 16.82323 35286 ft 469 kts 127°
2026-05-01 08:46 43.24628 16.89236 35275 ft 469 kts 127°
2026-05-01 08:47 43.20468 16.96146 35277 ft 470 kts 127°
2026-05-01 08:47 43.16302 17.03031 35282 ft 470 kts 128°
2026-05-01 08:48 43.12315 17.10102 35286 ft 469 kts 122°
2026-05-01 08:48 43.08664 17.17509 35260 ft 470 kts 122°
2026-05-01 08:49 43.05015 17.24874 35253 ft 471 kts 122°
2026-05-01 08:49 43.01332 17.32288 35258 ft 472 kts 122°
2026-05-01 08:50 42.97728 17.39772 35263 ft 472 kts 121°
2026-05-01 08:50 42.94191 17.47326 35240 ft 473 kts 121°
2026-05-01 08:51 42.90634 17.54878 35242 ft 473 kts 121°
2026-05-01 08:51 42.87031 17.62398 35237 ft 474 kts 121°
2026-05-01 08:52 42.83430 17.69879 35227 ft 474 kts 122°
2026-05-01 08:52 42.79814 17.77386 35224 ft 475 kts 122°
2026-05-01 08:53 42.76190 17.84927 35222 ft 475 kts 122°
2026-05-01 08:53 42.72560 17.92458 35218 ft 476 kts 122°
2026-05-01 08:54 42.68920 17.99983 35221 ft 476 kts 122°
2026-05-01 08:54 42.65271 18.07494 35228 ft 476 kts 122°
2026-05-01 08:55 42.61633 18.14956 35237 ft 476 kts 122°
2026-05-01 08:55 42.57977 18.22456 35238 ft 477 kts 122°
2026-05-01 08:56 42.54303 18.29946 35230 ft 477 kts 123°
2026-05-01 08:56 42.50536 18.37368 35222 ft 478 kts 124°
2026-05-01 08:57 42.46705 18.44758 35223 ft 479 kts 124°
2026-05-01 08:57 42.42892 18.52080 35200 ft 479 kts 125°
2026-05-01 08:58 42.38993 18.59387 34940 ft 478 kts 125°
2026-05-01 08:58 42.37035 18.63084 33793 ft 489 kts 125°
2026-05-01 08:58 42.35050 18.66855 32679 ft 493 kts 126°
2026-05-01 08:59 42.32813 18.70356 31836 ft 491 kts 135°
2026-05-01 08:59 42.30229 18.73349 31107 ft 487 kts 144°
2026-05-01 08:59 42.28353 18.75013 30632 ft 484 kts 150°
2026-05-01 08:59 42.24469 18.77886 29607 ft 479 kts 152°
2026-05-01 09:00 42.21564 18.80020 29060 ft 470 kts 152°
2026-05-01 09:00 42.18717 18.82115 28502 ft 463 kts 152°
2026-05-01 09:00 42.16852 18.83489 28136 ft 458 kts 152°
2026-05-01 09:00 42.14074 18.85535 27592 ft 451 kts 152°
2026-05-01 09:01 42.11356 18.87590 27035 ft 446 kts 148°
2026-05-01 09:01 42.08888 18.90074 26495 ft 441 kts 138°
2026-05-01 09:01 42.06701 18.92931 25974 ft 435 kts 135°
2026-05-01 09:01 42.04558 18.95778 25459 ft 430 kts 135°
2026-05-01 09:02 42.02437 18.98583 24958 ft 425 kts 136°
2026-05-01 09:02 42.00331 19.01357 24469 ft 421 kts 136°
2026-05-01 09:02 41.98244 19.04099 24004 ft 418 kts 136°
2026-05-01 09:02 41.96173 19.06819 23491 ft 414 kts 135°
2026-05-01 09:03 41.94127 19.09508 23031 ft 409 kts 135°
2026-05-01 09:03 41.92129 19.12136 22582 ft 405 kts 135°
2026-05-01 09:03 41.90102 19.14805 22112 ft 402 kts 135°
2026-05-01 09:03 41.88143 19.17388 21669 ft 399 kts 135°
2026-05-01 09:04 41.86162 19.19997 21202 ft 396 kts 135°
2026-05-01 09:04 41.84206 19.22575 20744 ft 393 kts 135°
2026-05-01 09:04 41.82260 19.25143 20268 ft 391 kts 135°
2026-05-01 09:04 41.80328 19.27693 19778 ft 388 kts 134°
2026-05-01 09:05 41.78410 19.30222 19293 ft 386 kts 135°
2026-05-01 09:05 41.76599 19.32871 18797 ft 383 kts 129°
2026-05-01 09:05 41.74900 19.35610 18278 ft 382 kts 129°
2026-05-01 09:05 41.73227 19.38294 17760 ft 378 kts 129°
2026-05-01 09:06 41.71544 19.40981 17250 ft 375 kts 129°
2026-05-01 09:06 41.69868 19.43642 16754 ft 372 kts 129°
2026-05-01 09:06 41.68206 19.46277 16252 ft 369 kts 129°
2026-05-01 09:06 41.66555 19.48893 15743 ft 367 kts 130°
2026-05-01 09:07 41.64704 19.51214 15248 ft 365 kts 143°
2026-05-01 09:07 41.62513 19.52907 14737 ft 363 kts 157°
2026-05-01 09:07 41.60102 19.53890 14229 ft 362 kts 170°
2026-05-01 09:07 41.57605 19.54278 13689 ft 360 kts 174°
2026-05-01 09:08 41.55121 19.54611 13167 ft 358 kts 174°
2026-05-01 09:08 41.52654 19.54944 12655 ft 355 kts 174°
2026-05-01 09:08 41.50210 19.55274 12161 ft 351 kts 174°
2026-05-01 09:08 41.47817 19.55598 11664 ft 349 kts 174°
2026-05-01 09:09 41.45406 19.55926 11231 ft 345 kts 174°
2026-05-01 09:09 41.43055 19.56246 11120 ft 336 kts 173°
2026-05-01 09:09 41.40764 19.56562 11129 ft 323 kts 173°
2026-05-01 09:09 41.38578 19.56862 11130 ft 308 kts 173°
2026-05-01 09:10 41.36474 19.57148 11131 ft 303 kts 173°
2026-05-01 09:10 41.34381 19.57434 10868 ft 300 kts 173°
2026-05-01 09:10 41.32309 19.57715 10266 ft 298 kts 173°
2026-05-01 09:10 41.30254 19.57996 9602 ft 297 kts 173°
2026-05-01 09:11 41.28204 19.58273 8964 ft 295 kts 173°
2026-05-01 09:11 41.26184 19.58544 8443 ft 288 kts 172°
2026-05-01 09:11 41.24206 19.58806 7938 ft 282 kts 172°
2026-05-01 09:11 41.22268 19.59065 7416 ft 278 kts 172°
2026-05-01 09:12 41.20387 19.59341 7162 ft 262 kts 166°
2026-05-01 09:12 41.18807 19.60254 7035 ft 238 kts 137°
2026-05-01 09:12 41.17829 19.61880 6794 ft 220 kts 111°
2026-05-01 09:12 41.17529 19.63815 6337 ft 212 kts 85°
2026-05-01 09:13 41.17680 19.65753 5967 ft 213 kts 83°
2026-05-01 09:13 41.17837 19.67727 5634 ft 216 kts 84°
2026-05-01 09:13 41.17991 19.69721 5327 ft 218 kts 84°
2026-05-01 09:13 41.18143 19.71700 5006 ft 217 kts 83°
2026-05-01 09:14 41.18606 19.73540 4695 ft 209 kts 54°
2026-05-01 09:14 41.19747 19.74673 4392 ft 207 kts 20°
2026-05-01 09:14 41.21166 19.74718 4116 ft 207 kts 352°
2026-05-01 09:14 41.22554 19.74407 3854 ft 195 kts 357°
2026-05-01 09:15 41.23877 19.74238 3571 ft 189 kts 360°
2026-05-01 09:15 41.25188 19.74101 3297 ft 188 kts 359°
2026-05-01 09:15 41.26486 19.73961 3038 ft 185 kts 359°
2026-05-01 09:15 41.27755 19.73817 2821 ft 183 kts 359°
2026-05-01 09:16 41.29018 19.73670 2562 ft 186 kts 358°
2026-05-01 09:16 41.30304 19.73513 2333 ft 186 kts 357°
2026-05-01 09:16 41.31579 19.73350 2087 ft 180 kts 356°
2026-05-01 09:17 41.33968 19.73039 1575 ft 165 kts 356°
2026-05-01 09:17 41.35048 19.72898 1332 ft 148 kts 356°
2026-05-01 09:17 41.36985 19.72645 940 ft 136 kts 356°
2026-05-01 09:18 41.37924 19.72526 744 ft 137 kts 356°
2026-05-01 09:18 41.39805 19.72280 291 ft 135 kts 354°
2026-05-01 09:19 41.41368 19.72073 127 ft 49 kts 354°
2026-05-01 09:19 41.41656 19.72030 122 ft 39 kts 355°
2026-05-01 09:19 41.41844 19.72004 121 ft 12 kts 343°
2026-05-01 09:20 41.41867 19.71769 124 ft 14 kts 263°
2026-05-01 09:20 41.41872 19.71599 123 ft 9 kts 316°
2026-05-01 09:21 41.41949 19.71574 121 ft 4 kts 316°
2026-05-01 09:21 41.41951 19.71542 123 ft 2 kts 264°
2026-05-01 09:21 41.41949 19.71516 122 ft 1 kts 264°
2026-05-01 09:22 41.41949 19.71513 122 ft 0 kts 264°